O3B FM19

Last updated on Fri Dec 29 2023 00:03:04 GMT+0000 (Greenwich Mean Time)

1 44113U 19020B 23361.73296068 -.00000024 00000+0 00000+0 0 9996 2 44113 0.0357 20.3951 0004089 244.1762 95.3804 5.00115780 86298
UTC large
Height (km)
Speed (km/s)
/
Latitude / Longitude
Inclination (degrees)
Orbital Period (minutes)
Azimuth
Elevation
Range (km)
Doppler Factor

Next 0 passes for location: London (51.5072 / 0.1276)

Sorry there are no passes over London.